Find Local Weather

World > North America > United States > California

Los Angeles, California Regional Weather

Lat: 34.04N, Lon: 118.3W
Wx Zone: CAZ041
Feedback
Expires:201810192200;;436933
ASUS46 KLOX 192113
RWRCA 

SOUTHERN CALIFORNIA WEATHER ROUNDUP
NATIONAL WEATHER SERVICE OXNARD CALIFORNIA
200 PM PDT FRI OCT 19 2018

NOTE: "FAIR" INDICATES FEW OR NO CLOUDS BELOW 12,000 FEET WITH NO 
SIGNIFICANT WEATHER AND/OR OBSTRUCTIONS TO VISIBILITY.

  -  STATIONS PRECEEDED BY AN ASTERISK (*) ARE NOT NWS OR FAA 
     STATIONS AND ARE NOT SUBJECT TO NWS AND FAA QUALITY CONTROL.


CAZ041-042-087-192200-
LA AND ORANGE COUNTY COASTAL AREAS

  
CITY           SKY/WX    TMP DP  RH WIND       PRES   REMARKS
L.A. DOWNTOWN  SUNNY     88  36  15 MISG      29.95F                  
L.A. AIRPORT   SUNNY     86  35  16 W13       29.96F                  
LONG BEACH     SUNNY     91  35  13 W3        29.94F                  

CITY           SKY/WX    TMP DP  RH WIND       PRES   REMARKS
AVALON           N/A     86 N/A N/A MISG        N/A                   
FULLERTON      SUNNY     92  30  11 W8        29.92F                  
*GETTY CENTER    N/A    N/A N/A N/A SW13G18     N/A                   
HAWTHORNE      SUNNY     88  32  13 W12       29.95F                  
*LEO CARRILLO    N/A     82  38  21 S2          N/A                   
*LOS ALAMITOS  SUNNY     91  40  16 S7        29.93F                  
*REDONDO BEACH   N/A     82  44  26 CALM      29.94F                  
SANTA ANA      SUNNY     85  41  21 SW17      29.93F                  
STA MONICA APT SUNNY     87  30  13 SW8       29.96F                  
TORRANCE       SUNNY     88  34  14 W12       29.95F                  
*UCLA            N/A     82  28  14 S5        29.93F                  

$$


SKY/WX - Weather  TMP - Temperature  DP - Dew Point  RH - Relative Humidity
WIND - Wind Direction/Speed PRES - Barometric Pressure